Meteor 1-24 Rocket - Orbit

View from above orbital plane
View from above orbital plane
View from above satellite
View from above satellite

Ground track
Ground track

The orbit data is extracted from the following two-line orbital elements,

1 08800U 76032B   13139.76130289 -.00000068  00000-0 -44687-4 0  7488
2 08800 081.2518 226.0447 0095031 081.8361 063.6555 14.09875299908295
Epoch (UTC): 19 May 2013 18:16:16
Eccentricity: 0.0095031
inclination: 81.2518°
perigee height: 791 km
apogee height: 928 km
right ascension of ascending node: 226.0447°
argument of perigee: 81.8361°
revolutions per day: 14.09875299
mean anomaly at epoch: 63.6555°
orbit number at epoch: 90829

The dashed part of the orbit path shows where the satellite is in the earth's shadow,  

Developed and maintained by Chris Peat, Heavens-Above GmbH. Please read the updated FAQ before sending e-mail. Imprint. DLR